| time (UTC) | temp F | wind direction | speed knots | gust knots | rain 1hr in | rain 24hr in | rain mn in | humidity % | barometer mb |
| 20260509211539 | 56 | 327 | 0.0 | 0.0 | 0.00 | 0.15 | 0.15 | 97 | 1009.8 |
| 20260509210053 | 57 | 327 | 0.0 | 0.9 | 0.00 | 0.15 | 0.15 | 96 | 1009.8 |
| 20260509204542 | 57 | 327 | 0.0 | 0.9 | 0.00 | 0.15 | 0.15 | 97 | 1009.9 |
| 20260509203041 | 57 | 226 | 0.0 | 0.9 | 0.01 | 0.15 | 0.15 | 97 | 1009.9 |
| 20260509201536 | 56 | 226 | 0.0 | 0.9 | 0.02 | 0.15 | 0.15 | 97 | 1010.0 |
| 20260509200035 | 55 | 265 | 0.0 | 0.9 | 0.02 | 0.15 | 0.15 | 96 | 1009.9 |
| 20260509194533 | 55 | 265 | 0.0 | 0.0 | 0.02 | 0.15 | 0.15 | 97 | 1010.2 |
| 20260509193034 | 55 | 265 | 0.0 | 0.9 | 0.03 | 0.14 | 0.14 | 96 | 1010.3 |
| 20260509191537 | 56 | 265 | 0.0 | 0.9 | 0.04 | 0.13 | 0.13 | 96 | 1010.6 |
| 20260509190027 | 55 | 265 | 0.0 | 0.9 | 0.05 | 0.13 | 0.13 | 96 | 1010.9 |
| 20260509184528 | 55 | 265 | 0.0 | 0.9 | 0.05 | 0.13 | 0.13 | 95 | 1011.1 |
| 20260509183029 | 55 | 265 | 0.0 | 0.9 | 0.05 | 0.11 | 0.11 | 93 | 1011.5 |
| 20260509181524 | 55 | 256 | 0.0 | 0.9 | 0.04 | 0.09 | 0.09 | 93 | 1011.4 |
| 20260509180024 | 56 | 250 | 0.0 | 0.9 | 0.03 | 0.08 | 0.08 | 93 | 1011.4 |
| 20260509174524 | 56 | 250 | 0.0 | 0.9 | 0.03 | 0.08 | 0.08 | 92 | 1011.5 |
| 20260509173023 | 56 | 101 | 0.0 | 4.3 | 0.01 | 0.06 | 0.06 | 90 | 1011.5 |
| 20260509171523 | 56 | 244 | 0.0 | 4.3 | 0.00 | 0.05 | 0.05 | 89 | 1011.5 |
| 20260509170022 | 57 | 257 | 0.0 | 1.7 | 0.02 | 0.05 | 0.05 | 92 | 1011.5 |
| 20260509164533 | 56 | 199 | 0.0 | 0.9 | 0.04 | 0.05 | 0.05 | 92 | 1011.1 |
| 20260509163021 | 56 | 202 | 0.0 | 0.9 | 0.04 | 0.05 | 0.05 | 91 | 1011.2 |
| 20260509161521 | 56 | 264 | 0.9 | 2.6 | 0.05 | 0.05 | 0.05 | 89 | 1011.3 |
| 20260509160020 | 56 | 221 | 0.9 | 7.0 | 0.03 | 0.03 | 0.03 | 86 | 1011.6 |
| 20260509154519 | 58 | 261 | 2.6 | 5.2 | 0.01 | 0.01 | 0.01 | 86 | 1012.0 |
| 20260509153019 | 58 | 266 | 1.7 | 4.3 | 0.01 | 0.01 | 0.01 | 84 | 1012.1 |
| 20260509151518 | 58 | 227 | 2.6 | 5.2 | 0.00 | 0.00 | 0.00 | 84 | 1012.1 |
| 20260509150016 | 58 | 205 | 0.9 | 3.5 | 0.00 | 0.00 | 0.00 | 86 | 1012.0 |
| 20260509144515 | 57 | 197 | 0.0 | 5.2 | 0.00 | 0.00 | 0.00 | 85 | 1011.6 |
| 20260509143015 | 57 | 222 | 1.7 | 5.2 | 0.00 | 0.00 | 0.00 | 85 | 1011.7 |
| 20260509141514 | 58 | 199 | 2.6 | 6.1 | 0.00 | 0.00 | 0.00 | 82 | 1011.5 |
| 20260509140013 | 57 | 261 | 1.7 | 6.1 | 0.00 | 0.00 | 0.00 | 82 | 1011.3 |
| 20260509134513 | 57 | 209 | 2.6 | 6.1 | 0.00 | 0.00 | 0.00 | 81 | 1011.3 |
| 20260509133011 | 57 | 207 | 0.9 | 5.2 | 0.00 | 0.00 | 0.00 | 82 | 1011.3 |
| 20260509131508 | 56 | 202 | 2.6 | 5.2 | 0.00 | 0.00 | 0.00 | 83 | 1011.4 |
| 20260509130006 | 56 | 90 | 0.0 | 1.7 | 0.00 | 0.00 | 0.00 | 84 | 1011.2 |
| 20260509124502 | 54 | 219 | 0.0 | 0.9 | 0.00 | 0.00 | 0.00 | 88 | 1011.3 |
| 20260509123004 | 53 | 219 | 0.0 | 0.0 | 0.00 | 0.00 | 0.00 | 89 | 1011.4 |
| 20260509121612 | 53 | 219 | 0.0 | 0.0 | 0.00 | 0.00 | 0.00 | 89 | 1011.4 |
| 20260509120113 | 52 | 219 | 0.0 | 0.9 | 0.00 | 0.00 | 0.00 | 89 | 1011.4 |
| 20260509114559 | 52 | 88 | 0.0 | 2.6 | 0.00 | 0.00 | 0.00 | 89 | 1011.3 |
| 20260509113059 | 52 | 217 | 0.0 | 0.0 | 0.00 | 0.00 | 0.00 | 88 | 1011.3 |
| 20260509111558 | 51 | 217 | 0.0 | 0.0 | 0.00 | 0.00 | 0.00 | 89 | 1011.3 |
| 20260509104558 | 50 | 182 | 0.0 | 0.0 | 0.00 | 0.00 | 0.00 | 90 | 1011.2 |
| 20260509103102 | 50 | 182 | 0.0 | 0.0 | 0.00 | 0.00 | 0.00 | 89 | 1011.1 |
| 20260509101600 | 50 | 182 | 0.0 | 0.0 | 0.00 | 0.00 | 0.00 | 88 | 1011.1 |
| 20260509100055 | 50 | 182 | 0.0 | 0.0 | 0.00 | 0.00 | 0.00 | 88 | 1010.9 |
| 20260509094552 | 51 | 182 | 0.0 | 0.0 | 0.00 | 0.00 | 0.00 | 87 | 1011.1 |
| 20260509093054 | 51 | 182 | 0.0 | 0.0 | 0.00 | 0.00 | 0.00 | 87 | 1011.3 |
| 20260509091614 | 51 | 182 | 0.0 | 0.0 | 0.00 | 0.00 | 0.00 | 86 | 1011.1 |
| 20260509090050 | 52 | 182 | 0.0 | 0.0 | 0.00 | 0.00 | 0.00 | 84 | 1011.1 |
| 20260509084549 | 51 | 182 | 0.0 | 1.7 | 0.00 | 0.00 | 0.00 | 85 | 1011.3 |
| 20260509083051 | 51 | 185 | 0.0 | 0.0 | 0.00 | 0.00 | 0.00 | 85 | 1011.5 |
| 20260509081547 | 51 | 185 | 0.0 | 0.9 | 0.00 | 0.00 | 0.00 | 86 | 1011.3 |
| 20260509080051 | 51 | 185 | 0.0 | 0.0 | 0.00 | 0.00 | 0.00 | 85 | 1011.6 |
| 20260509074552 | 51 | 185 | 0.0 | 0.0 | 0.00 | 0.00 | 0.00 | 85 | 1011.5 |
| 20260509073114 | 51 | 185 | 0.0 | 0.0 | 0.00 | 0.00 | 0.00 | 85 | 1011.6 |
| 20260509071544 | 51 | 185 | 0.0 | 0.0 | 0.00 | 0.00 | 0.00 | 85 | 1011.5 |
| 20260509070048 | 51 | 185 | 0.0 | 0.9 | 0.00 | 0.00 | 0.00 | 84 | 1011.4 |
| 20260509064542 | 51 | 185 | 0.0 | 0.0 | 0.00 | 0.00 | 0.00 | 85 | 1011.5 |
| 20260509063040 | 51 | 185 | 0.0 | 0.0 | 0.00 | 0.00 | 0.00 | 84 | 1011.6 |
| 20260509061539 | 52 | 185 | 0.0 | 0.0 | 0.00 | 0.00 | 0.00 | 82 | 1011.9 |
| 20260509060046 | 52 | 185 | 0.0 | 0.0 | 0.00 | 0.00 | 0.00 | 81 | 1012.0 |
| 20260509054533 | 52 | 185 | 0.0 | 0.0 | 0.00 | 0.00 | 0.00 | 79 | 1012.3 |
| 20260509053034 | 52 | 185 | 0.0 | 0.0 | 0.00 | 0.00 | 0.00 | 79 | 1012.5 |
| 20260509051528 | 53 | 185 | 0.0 | 0.0 | 0.00 | 0.00 | 0.00 | 78 | 1012.5 |
| 20260509050028 | 53 | 185 | 0.0 | 0.0 | 0.00 | 0.00 | 0.00 | 76 | 1012.6 |
| 20260509044534 | 53 | 185 | 0.0 | 0.0 | 0.00 | 0.00 | 0.00 | 77 | 1012.7 |
| 20260509043033 | 53 | 185 | 0.0 | 0.0 | 0.00 | 0.00 | 0.00 | 77 | 1012.4 |
| 20260509041524 | 54 | 185 | 0.0 | 0.0 | 0.00 | 0.00 | 0.00 | 75 | 1012.4 |
| 20260509040020 | 53 | 185 | 0.0 | 0.0 | 0.00 | 0.00 | 0.00 | 75 | 1012.7 |
| 20260509034527 | 54 | 185 | 0.0 | 0.9 | 0.00 | 0.00 | 0.00 | 76 | 1012.7 |
| 20260509033019 | 54 | 185 | 0.0 | 0.9 | 0.00 | 0.00 | 0.00 | 73 | 1012.7 |
| 20260509031519 | 54 | 185 | 0.0 | 0.0 | 0.00 | 0.00 | 0.00 | 70 | 1012.8 |
| 20260509030018 | 53 | 185 | 0.0 | 0.0 | 0.00 | 0.00 | 0.00 | 72 | 1013.0 |
| 20260509024517 | 54 | 185 | 0.0 | 0.0 | 0.00 | 0.00 | 0.00 | 74 | 1012.7 |
| 20260509023018 | 54 | 185 | 0.0 | 0.0 | 0.00 | 0.00 | 0.00 | 72 | 1012.8 |
| 20260509021518 | 54 | 185 | 0.0 | 0.0 | 0.00 | 0.00 | 0.00 | 73 | 1012.9 |
| 20260509020016 | 54 | 185 | 0.0 | 0.0 | 0.00 | 0.00 | 0.00 | 70 | 1012.7 |
| 20260509014515 | 55 | 185 | 0.0 | 0.0 | 0.00 | 0.00 | 0.00 | 67 | 1012.5 |
| 20260509013018 | 55 | 185 | 0.0 | 0.0 | 0.00 | 0.00 | 0.00 | 68 | 1012.3 |
| 20260509011515 | 56 | 185 | 0.0 | 0.0 | 0.00 | 0.00 | 0.00 | 62 | 1012.1 |
| 20260509010019 | 57 | 185 | 0.0 | 0.0 | 0.00 | 0.00 | 0.00 | 60 | 1012.0 |
| 20260509004513 | 59 | 184 | 0.0 | 0.0 | 0.00 | 0.00 | 0.00 | 57 | 1011.7 |
| 20260509003020 | 59 | 184 | 0.0 | 0.0 | 0.00 | 0.00 | 0.00 | 57 | 1011.5 |
| 20260509001512 | 60 | 202 | 0.0 | 1.7 | 0.00 | 0.00 | 0.00 | 56 | 1011.3 |
| 20260509000012 | 61 | 205 | 0.9 | 1.7 | 0.00 | 0.00 | 0.00 | 51 | 1011.1 |
| 20260508234511 | 61 | 218 | 0.0 | 1.7 | 0.00 | 0.00 | 0.00 | 51 | 1011.0 |
| 20260508233011 | 62 | 231 | 0.0 | 1.7 | 0.00 | 0.00 | 0.00 | 52 | 1010.9 |
| 20260508231510 | 63 | 206 | 0.9 | 1.7 | 0.00 | 0.00 | 0.00 | 45 | 1010.8 |
| 20260508230009 | 63 | 266 | 0.0 | 0.9 | 0.00 | 0.00 | 0.00 | 46 | 1010.7 |
| 20260508224609 | 64 | 201 | 0.0 | 6.1 | 0.00 | 0.00 | 0.00 | 44 | 1010.6 |
| 20260508223025 | 64 | 232 | 0.0 | 1.7 | 0.00 | 0.00 | 0.00 | 44 | 1010.7 |
| 20260508221508 | 64 | 218 | 0.9 | 7.0 | 0.00 | 0.00 | 0.00 | 44 | 1010.7 |
| 20260508220010 | 64 | 232 | 2.6 | 11.3 | 0.00 | 0.00 | 0.00 | 42 | 1010.7 |
| 20260508214508 | 64 | 261 | 0.0 | 3.5 | 0.00 | 0.00 | 0.00 | 43 | 1010.7 |
| 20260508213009 | 64 | 254 | 0.9 | 5.2 | 0.00 | 0.00 | 0.00 | 42 | 1010.7 |